{"data":{"norad_id":69201,"epoch":"2026-09-19T21:18:57.468096Z","epoch_age_seconds":79766,"freshness":"FRESH","line1":"1 69201U 26114V   26262.88816514  .00024196  00000+0  72468-3 0  9992","line2":"2 69201  53.1570 116.4877 0001127  94.9138 265.1993 15.34410451 19351","mean_motion":15.34410451,"eccentricity":0.0001127,"inclination_deg":53.157,"raan_deg":116.4877,"arg_perigee_deg":94.9138,"mean_anomaly_deg":265.1993,"bstar":0.00072468,"rev_number":1935,"period_min":93.847118876278,"perigee_km":461.90121861463,"apogee_km":463.4431370033,"semimajor_km":6840.809177809,"source":"CELESTRAK","updated_at":"2026-09-20T09:00:44.099445Z"}}